Time,TemperatureF,DewpointF,PressureIn,WindDirection,WindDirectionDegrees,WindSpeedMPH,WindSpeedGustMPH,Humidity,HourlyPrecipIn,Conditions,Clouds,dailyrainin,SoftwareType,DateUTC
2013-05-03 00:02:00,35.0,34.0,-100.00,SSW,210,4.0,9.0,97,0.00,,,-99.99,,2013-05-03 05:02:00,
2013-05-03 00:12:00,35.0,34.0,-100.00,SSW,210,6.0,7.0,97,0.00,,,-99.99,,2013-05-03 05:12:00,
2013-05-03 00:21:00,35.0,34.0,-100.00,SSW,210,4.0,6.0,96,0.00,,,-99.99,,2013-05-03 05:21:00,
2013-05-03 00:32:00,35.0,34.0,-100.00,SW,215,7.0,9.0,96,0.00,,,-99.99,,2013-05-03 05:32:00,
2013-05-03 00:42:00,35.0,34.0,-100.00,SW,215,7.0,9.0,96,0.00,,,-99.99,,2013-05-03 05:42:00,
2013-05-03 00:52:00,35.0,33.0,-100.00,North,0,9.0,11.0,95,0.00,,,-99.99,,2013-05-03 05:52:00,
2013-05-03 01:02:00,35.0,33.0,-100.00,North,0,9.0,11.0,95,0.00,,,-99.99,,2013-05-03 06:02:00,
2013-05-03 01:11:00,35.0,33.0,-100.00,North,5,9.0,13.0,94,0.00,,,-99.99,,2013-05-03 06:11:00,
2013-05-03 01:21:00,35.0,33.0,-100.00,North,5,9.0,12.0,94,0.00,,,-99.99,,2013-05-03 06:21:00,
2013-05-03 01:32:00,35.0,33.0,-100.00,North,0,8.0,11.0,93,0.01,,,-99.99,,2013-05-03 06:32:00,
2013-05-03 01:42:00,35.0,33.0,-100.00,North,0,8.0,11.0,93,0.01,,,-99.99,,2013-05-03 06:42:00,
2013-05-03 01:51:00,35.0,33.0,-100.00,North,0,11.0,17.0,94,0.00,,,-99.99,,2013-05-03 06:51:00,
2013-05-03 02:01:00,35.0,33.0,-100.00,North,0,11.0,17.0,94,0.00,,,-99.99,,2013-05-03 07:01:00,
2013-05-03 02:11:00,35.0,33.0,-100.00,North,5,10.0,17.0,94,0.01,,,-99.99,,2013-05-03 07:11:00,
2013-05-03 02:21:00,35.0,33.0,-100.00,North,5,13.0,18.0,95,0.33,,,-99.99,,2013-05-03 07:21:00,
2013-05-03 02:31:00,34.0,33.0,-100.00,SSW,210,5.0,10.0,96,0.59,,,-99.99,,2013-05-03 07:31:00,
2013-05-03 02:42:00,34.0,33.0,-100.00,SSW,210,5.0,10.0,96,0.59,,,-99.99,,2013-05-03 07:42:00,
2013-05-03 02:52:00,34.0,34.0,-100.00,SW,215,10.0,16.0,96,0.40,,,-99.99,,2013-05-03 07:52:00,
2013-05-03 03:01:00,34.0,34.0,-100.00,SW,215,10.0,16.0,96,0.40,,,-99.99,,2013-05-03 08:01:00,
2013-05-03 03:11:00,34.0,33.0,-100.00,SW,220,9.0,14.0,97,0.14,,,-99.99,,2013-05-03 08:11:00,
2013-05-03 03:21:00,34.0,33.0,-100.00,SW,220,9.0,15.0,97,0.44,,,-99.99,,2013-05-03 08:21:00,
2013-05-03 03:32:00,33.0,33.0,-100.00,SW,225,9.0,16.0,98,0.55,,,-99.99,,2013-05-03 08:32:00,
2013-05-03 03:42:00,33.0,33.0,-100.00,SW,225,9.0,16.0,98,0.55,,,-99.99,,2013-05-03 08:42:00,
2013-05-03 03:52:00,33.0,33.0,-100.00,SW,215,10.0,17.0,99,0.43,,,-99.99,,2013-05-03 08:52:00,
2013-05-03 04:01:00,33.0,33.0,-100.00,SW,215,10.0,17.0,99,0.43,,,-99.99,,2013-05-03 09:01:00,
2013-05-03 04:11:00,33.0,33.0,-100.00,SW,215,10.0,16.0,99,0.31,,,-99.99,,2013-05-03 09:11:00,
2013-05-03 04:32:00,33.0,33.0,-100.00,SW,215,12.0,17.0,99,0.59,,,-99.99,,2013-05-03 09:32:00,
2013-05-03 04:42:00,33.0,33.0,-100.00,SW,215,12.0,17.0,99,0.59,,,-99.99,,2013-05-03 09:42:00,
2013-05-03 04:52:00,33.0,33.0,-100.00,North,0,12.0,21.0,99,0.40,,,-99.99,,2013-05-03 09:52:00,
2013-05-03 05:02:00,33.0,33.0,-100.00,North,0,12.0,21.0,99,0.40,,,-99.99,,2013-05-03 10:02:00,
2013-05-03 05:12:00,33.0,33.0,-100.00,SW,220,9.0,18.0,99,0.47,,,-99.99,,2013-05-03 10:12:00,
2013-05-03 05:22:00,33.0,33.0,-100.00,SW,220,12.0,17.0,99,4.93,,,-99.99,,2013-05-03 10:22:00,
2013-05-03 05:32:00,33.0,33.0,-100.00,SW,215,12.0,17.0,99,0.24,,,-99.99,,2013-05-03 10:32:00,
2013-05-03 05:42:00,33.0,33.0,-100.00,SW,215,12.0,17.0,99,0.24,,,-99.99,,2013-05-03 10:42:00,
2013-05-03 05:52:00,33.0,33.0,-100.00,SSW,210,9.0,15.0,99,0.37,,,-99.99,,2013-05-03 10:52:00,
2013-05-03 06:02:00,33.0,33.0,-100.00,SSW,210,9.0,15.0,99,0.37,,,-99.99,,2013-05-03 11:02:00,
2013-05-03 06:11:00,33.0,33.0,-100.00,SSW,210,14.0,21.0,99,0.28,,,-99.99,,2013-05-03 11:11:00,
2013-05-03 06:22:00,33.0,33.0,-100.00,SSW,210,12.0,17.0,99,0.34,,,-99.99,,2013-05-03 11:22:00,
2013-05-03 06:32:00,33.0,33.0,-100.00,SSW,210,14.0,20.0,99,0.21,,,-99.99,,2013-05-03 11:32:00,
2013-05-03 06:42:00,33.0,33.0,-100.00,SSW,210,14.0,20.0,99,0.21,,,-99.99,,2013-05-03 11:42:00,
2013-05-03 06:51:00,33.0,33.0,-100.00,SSW,200,11.0,15.0,99,0.41,,,-99.99,,2013-05-03 11:51:00,
2013-05-03 07:01:00,33.0,33.0,-100.00,SSW,200,11.0,15.0,99,0.41,,,-99.99,,2013-05-03 12:01:00,
2013-05-03 07:11:00,33.0,33.0,-100.00,SSW,210,12.0,18.0,99,0.14,,,-99.99,,2013-05-03 12:11:00,
2013-05-03 07:21:00,33.0,33.0,-100.00,SSW,205,11.0,18.0,99,0.17,,,-99.99,,2013-05-03 12:21:00,
2013-05-03 07:32:00,33.0,33.0,-100.00,NW,305,12.0,19.0,99,0.08,,,-99.99,,2013-05-03 12:32:00,
2013-05-03 07:42:00,33.0,33.0,-100.00,NW,305,12.0,19.0,99,0.08,,,-99.99,,2013-05-03 12:42:00,
2013-05-03 07:51:00,33.0,33.0,-100.00,NW,310,11.0,16.0,99,0.58,,,-99.99,,2013-05-03 12:51:00,
2013-05-03 08:01:00,33.0,33.0,-100.00,NW,310,11.0,16.0,99,0.58,,,-99.99,,2013-05-03 13:01:00,
2013-05-03 08:11:00,33.0,33.0,-100.00,NW,305,11.0,19.0,99,0.33,,,-99.99,,2013-05-03 13:11:00,
2013-05-03 08:22:00,33.0,33.0,-100.00,NW,310,12.0,19.0,99,0.04,,,-99.99,,2013-05-03 13:22:00,
2013-05-03 08:32:00,33.0,33.0,-100.00,West,275,14.0,19.0,99,0.14,,,-99.99,,2013-05-03 13:32:00,
2013-05-03 08:42:00,33.0,33.0,-100.00,West,275,14.0,19.0,99,0.14,,,-99.99,,2013-05-03 13:42:00,
2013-05-03 08:52:00,33.0,33.0,-100.00,West,260,13.0,19.0,99,0.45,,,-99.99,,2013-05-03 13:52:00,
2013-05-03 09:02:00,33.0,33.0,-100.00,West,260,13.0,19.0,99,0.45,,,-99.99,,2013-05-03 14:02:00,
2013-05-03 09:11:00,33.0,33.0,-100.00,WSW,245,13.0,18.0,99,0.08,,,-99.99,,2013-05-03 14:11:00,
2013-05-03 09:21:00,33.0,33.0,-100.00,SSW,195,13.0,21.0,99,0.07,,,-99.99,,2013-05-03 14:21:00,
2013-05-03 09:32:00,33.0,33.0,-100.00,NW,315,13.0,19.0,99,0.08,,,-99.99,,2013-05-03 14:32:00,
2013-05-03 09:42:00,33.0,33.0,-100.00,NW,315,13.0,19.0,99,0.08,,,-99.99,,2013-05-03 14:42:00,
2013-05-03 09:52:00,33.0,33.0,-100.00,WNW,300,15.0,20.0,99,0.47,,,-99.99,,2013-05-03 14:52:00,
2013-05-03 10:01:00,33.0,33.0,-100.00,WNW,300,15.0,20.0,99,0.47,,,-99.99,,2013-05-03 15:01:00,
2013-05-03 10:11:00,33.0,33.0,-100.00,NW,315,13.0,21.0,99,0.16,,,-99.99,,2013-05-03 15:11:00,
2013-05-03 10:22:00,33.0,33.0,-100.00,NNW,330,15.0,23.0,99,0.06,,,-99.99,,2013-05-03 15:22:00,
2013-05-03 10:32:00,34.0,34.0,-100.00,NW,325,17.0,24.0,99,0.10,,,-99.99,,2013-05-03 15:32:00,
2013-05-03 10:43:00,34.0,34.0,-100.00,NW,325,17.0,24.0,99,0.10,,,-99.99,,2013-05-03 15:43:00,
2013-05-03 10:53:00,34.0,34.0,-100.00,NW,320,17.0,24.0,98,0.13,,,-99.99,,2013-05-03 15:53:00,
2013-05-03 11:03:00,34.0,34.0,-100.00,NW,320,17.0,24.0,98,0.13,,,-99.99,,2013-05-03 16:03:00,
2013-05-03 11:12:00,34.0,34.0,-100.00,NNW,330,17.0,25.0,98,0.54,,,-99.99,,2013-05-03 16:12:00,
2013-05-03 11:22:00,34.0,34.0,-100.00,NW,325,16.0,24.0,97,0.28,,,-99.99,,2013-05-03 16:22:00,
2013-05-03 11:32:00,35.0,34.0,-100.00,NNW,335,14.0,24.0,96,0.03,,,-99.99,,2013-05-03 16:32:00,
2013-05-03 11:42:00,35.0,34.0,-100.00,NNW,335,14.0,24.0,96,0.03,,,-99.99,,2013-05-03 16:42:00,
2013-05-03 11:52:00,34.0,33.0,-100.00,NNW,335,14.0,21.0,96,0.07,,,-99.99,,2013-05-03 16:52:00,
2013-05-03 12:02:00,34.0,33.0,-100.00,NNW,335,14.0,21.0,96,0.07,,,-99.99,,2013-05-03 17:02:00,
2013-05-03 12:12:00,34.0,33.0,-100.00,NNW,340,16.0,22.0,96,0.07,,,-99.99,,2013-05-03 17:12:00,
2013-05-03 12:23:00,34.0,33.0,-100.00,NNW,330,15.0,21.0,96,0.04,,,-99.99,,2013-05-03 17:23:00,
2013-05-03 12:32:00,34.0,33.0,-100.00,NNW,330,12.0,21.0,96,0.04,,,-99.99,,2013-05-03 17:32:00,
2013-05-03 12:42:00,34.0,33.0,-100.00,NNW,330,12.0,21.0,96,0.04,,,-99.99,,2013-05-03 17:42:00,
2013-05-03 12:51:00,34.0,33.0,-100.00,NNW,335,11.0,19.0,96,0.01,,,-99.99,,2013-05-03 17:51:00,
2013-05-03 13:01:00,34.0,33.0,-100.00,NNW,335,11.0,19.0,96,0.01,,,-99.99,,2013-05-03 18:01:00,
2013-05-03 13:12:00,34.0,33.0,-100.00,NW,325,14.0,22.0,96,0.00,,,-99.99,,2013-05-03 18:12:00,
2013-05-03 13:21:00,34.0,33.0,-100.00,North,0,11.0,22.0,97,0.01,,,-99.99,,2013-05-03 18:21:00,
2013-05-03 13:32:00,34.0,33.0,-100.00,NNW,340,10.0,19.0,97,0.01,,,-99.99,,2013-05-03 18:32:00,
2013-05-03 13:42:00,34.0,33.0,-100.00,NNW,340,10.0,19.0,97,0.01,,,-99.99,,2013-05-03 18:42:00,
2013-05-03 13:51:00,34.0,33.0,-100.00,NNW,330,11.0,17.0,97,0.00,,,-99.99,,2013-05-03 18:51:00,
2013-05-03 14:01:00,34.0,33.0,-100.00,NNW,330,11.0,17.0,97,0.00,,,-99.99,,2013-05-03 19:01:00,
2013-05-03 14:11:00,34.0,33.0,-100.00,NNW,330,15.0,22.0,97,0.00,,,-99.99,,2013-05-03 19:11:00,
2013-05-03 14:21:00,34.0,33.0,-100.00,North,0,16.0,22.0,97,0.00,,,-99.99,,2013-05-03 19:21:00,
2013-05-03 14:32:00,34.0,33.0,-100.00,North,5,16.0,22.0,97,0.00,,,-99.99,,2013-05-03 19:32:00,
2013-05-03 14:41:00,34.0,33.0,-100.00,North,5,16.0,22.0,97,0.00,,,-99.99,,2013-05-03 19:41:00,
2013-05-03 14:52:00,34.0,33.0,-100.00,NNW,340,11.0,20.0,97,0.00,,,-99.99,,2013-05-03 19:52:00,
2013-05-03 15:02:00,34.0,33.0,-100.00,NNW,340,11.0,20.0,97,0.00,,,-99.99,,2013-05-03 20:02:00,
2013-05-03 15:11:00,34.0,33.0,-100.00,NNW,340,15.0,19.0,97,0.00,,,-99.99,,2013-05-03 20:11:00,
2013-05-03 15:21:00,34.0,33.0,-100.00,NNW,335,12.0,19.0,97,0.00,,,-99.99,,2013-05-03 20:21:00,
2013-05-03 15:31:00,34.0,33.0,-100.00,NNW,335,16.0,20.0,97,0.00,,,-99.99,,2013-05-03 20:31:00,
2013-05-03 15:41:00,34.0,33.0,-100.00,NNW,335,16.0,20.0,97,0.00,,,-99.99,,2013-05-03 20:41:00,
2013-05-03 15:52:00,34.0,33.0,-100.00,North,0,11.0,22.0,97,0.54,,,-99.99,,2013-05-03 20:52:00,
2013-05-03 16:01:00,34.0,33.0,-100.00,North,0,11.0,22.0,97,0.54,,,-99.99,,2013-05-03 21:01:00,
2013-05-03 16:11:00,34.0,33.0,-100.00,North,5,12.0,18.0,97,1.23,,,-99.99,,2013-05-03 21:11:00,
2013-05-03 16:21:00,34.0,33.0,-100.00,North,0,13.0,22.0,97,0.72,,,-99.99,,2013-05-03 21:21:00,
2013-05-03 16:33:00,34.0,33.0,-100.00,North,0,15.0,21.0,97,0.37,,,-99.99,,2013-05-03 21:33:00,
2013-05-03 16:42:00,34.0,33.0,-100.00,North,0,15.0,21.0,97,0.37,,,-99.99,,2013-05-03 21:42:00,
2013-05-03 16:52:00,34.0,33.0,-100.00,NNW,340,14.0,19.0,98,0.33,,,-99.99,,2013-05-03 21:52:00,
2013-05-03 17:02:00,34.0,33.0,-100.00,NNW,340,14.0,19.0,98,0.33,,,-99.99,,2013-05-03 22:02:00,
2013-05-03 17:12:00,34.0,33.0,-100.00,NNW,340,12.0,22.0,98,0.00,,,-99.99,,2013-05-03 22:12:00,
2013-05-03 17:22:00,34.0,33.0,-100.00,North,0,16.0,21.0,98,0.00,,,-99.99,,2013-05-03 22:22:00,
2013-05-03 17:32:00,34.0,33.0,-100.00,NNW,340,13.0,24.0,98,0.00,,,-99.99,,2013-05-03 22:32:00,
2013-05-03 17:42:00,34.0,33.0,-100.00,NNW,340,13.0,24.0,98,0.00,,,-99.99,,2013-05-03 22:42:00,
2013-05-03 17:52:00,34.0,33.0,-100.00,NNW,335,13.0,21.0,97,0.00,,,-99.99,,2013-05-03 22:52:00,
2013-05-03 18:02:00,34.0,33.0,-100.00,NNW,335,13.0,21.0,97,0.00,,,-99.99,,2013-05-03 23:02:00,
2013-05-03 18:11:00,34.0,33.0,-100.00,North,0,17.0,21.0,96,0.00,,,-99.99,,2013-05-03 23:11:00,
2013-05-03 18:21:00,34.0,33.0,-100.00,North,0,14.0,21.0,96,0.00,,,-99.99,,2013-05-03 23:21:00,
2013-05-03 18:31:00,34.0,33.0,-100.00,North,10,14.0,19.0,96,0.00,,,-99.99,,2013-05-03 23:31:00,
2013-05-03 18:41:00,34.0,33.0,-100.00,North,10,14.0,19.0,96,0.00,,,-99.99,,2013-05-03 23:41:00,
2013-05-03 18:51:00,34.0,33.0,-100.00,North,5,12.0,17.0,95,0.00,,,-99.99,,2013-05-03 23:51:00,
2013-05-03 19:01:00,34.0,33.0,-100.00,North,5,12.0,17.0,95,0.00,,,-99.99,,2013-05-04 00:01:00,
2013-05-03 19:11:00,34.0,33.0,-100.00,North,0,12.0,18.0,94,0.00,,,-99.99,,2013-05-04 00:11:00,
2013-05-03 19:22:00,34.0,33.0,-100.00,North,10,12.0,17.0,94,0.00,,,-99.99,,2013-05-04 00:22:00,
2013-05-03 19:31:00,34.0,33.0,-100.00,North,0,12.0,22.0,93,0.00,,,-99.99,,2013-05-04 00:31:00,
2013-05-03 19:41:00,34.0,33.0,-100.00,North,0,12.0,22.0,93,0.00,,,-99.99,,2013-05-04 00:41:00,
2013-05-03 19:52:00,35.0,33.0,-100.00,North,5,14.0,17.0,93,0.00,,,-99.99,,2013-05-04 00:52:00,
2013-05-03 20:01:00,35.0,33.0,-100.00,North,5,14.0,17.0,93,0.00,,,-99.99,,2013-05-04 01:01:00,
2013-05-03 20:11:00,35.0,33.0,-100.00,NNW,335,12.0,21.0,93,0.00,,,-99.99,,2013-05-04 01:11:00,
2013-05-03 20:21:00,34.0,33.0,-100.00,North,0,12.0,19.0,93,0.00,,,-99.99,,2013-05-04 01:21:00,
2013-05-03 20:32:00,34.0,33.0,-100.00,North,5,14.0,22.0,93,0.00,,,-99.99,,2013-05-04 01:32:00,
2013-05-03 20:41:00,34.0,33.0,-100.00,North,5,14.0,22.0,93,0.00,,,-99.99,,2013-05-04 01:41:00,
2013-05-03 20:52:00,34.0,33.0,-100.00,North,0,14.0,22.0,92,0.00,,,-99.99,,2013-05-04 01:52:00,
2013-05-03 21:02:00,34.0,33.0,-100.00,North,0,14.0,22.0,92,0.00,,,-99.99,,2013-05-04 02:02:00,
2013-05-03 21:11:00,34.0,33.0,-100.00,North,0,14.0,18.0,92,0.00,,,-99.99,,2013-05-04 02:11:00,
2013-05-03 21:21:00,34.0,33.0,-100.00,NNW,340,13.0,21.0,92,0.00,,,-99.99,,2013-05-04 02:21:00,
2013-05-03 21:32:00,35.0,33.0,-100.00,NNW,335,11.0,19.0,92,0.00,,,-99.99,,2013-05-04 02:32:00,
2013-05-03 21:41:00,35.0,33.0,-100.00,NNW,335,11.0,19.0,92,0.00,,,-99.99,,2013-05-04 02:41:00,
2013-05-03 21:52:00,35.0,33.0,-100.00,North,0,12.0,18.0,92,0.50,,,-99.99,,2013-05-04 02:52:00,
2013-05-03 22:02:00,35.0,33.0,-100.00,North,0,12.0,18.0,92,0.50,,,-99.99,,2013-05-04 03:02:00,
2013-05-03 22:11:00,34.0,33.0,-100.00,WNW,300,14.0,17.0,93,0.55,,,-99.99,,2013-05-04 03:11:00,
2013-05-03 22:21:00,34.0,33.0,-100.00,WNW,300,12.0,19.0,94,0.00,,,-99.99,,2013-05-04 03:21:00,
2013-05-03 22:33:00,34.0,33.0,-100.00,North,5,15.0,20.0,96,0.00,,,-99.99,,2013-05-04 03:33:00,
2013-05-03 22:43:00,34.0,33.0,-100.00,North,5,15.0,20.0,96,0.00,,,-99.99,,2013-05-04 03:43:00,
2013-05-03 22:52:00,34.0,33.0,-100.00,North,0,14.0,22.0,96,0.50,,,-99.99,,2013-05-04 03:52:00,
2013-05-03 23:02:00,34.0,33.0,-100.00,North,0,14.0,22.0,96,0.50,,,-99.99,,2013-05-04 04:02:00,
2013-05-03 23:12:00,34.0,33.0,-100.00,North,5,14.0,24.0,96,1.18,,,-99.99,,2013-05-04 04:12:00,
2013-05-03 23:22:00,34.0,33.0,-100.00,WNW,295,14.0,20.0,96,0.98,,,-99.99,,2013-05-04 04:22:00,
2013-05-03 23:32:00,34.0,33.0,-100.00,North,10,14.0,22.0,97,0.67,,,-99.99,,2013-05-04 04:32:00,
2013-05-03 23:42:00,34.0,33.0,-100.00,North,10,14.0,22.0,97,0.67,,,-99.99,,2013-05-04 04:42:00,
2013-05-03 23:52:00,34.0,33.0,-100.00,North,5,12.0,18.0,97,0.57,,,-99.99,,2013-05-04 04:52:00,